Regional Weather Roundup
Issued by NWS

Home | Current Version | Previous Version | Graphics & Text | Print | Product List | Glossary On
Versions: 1 2 3 4 5 6 7 8 9 10 11 12 13 14 15 16 17 18 19 20 21 22 23 24 25 26 27 28 29
000
ASUS45 KCYS 190410
RWRWY

WYOMING REGIONAL WEATHER ROUNDUP
NATIONAL WEATHER SERVICE CHEYENNE WY
1000 PM MDT WED APR 18 2018

NOTE:  "FAIR" INDICATES FEW OR NO CLOUDS BELOW 12,000 FEET
WITH NO SIGNIFICANT WEATHER AND/OR OBSTRUCTIONS TO VISIBILITY.

WYZ001-190500-
YELLOWSTONE NATIONAL PARK

CITY           SKY/WX    TMP DP  RH WIND       PRES   REMARKS
LK YELLOWSTONE   N/A     25  12  58 NW3       30.17R
W YELLOWSTONE  NOT AVBL

$$
WYZ002>013-054>058-071-098>099-190500-
NORTHERN WYOMING

CITY           SKY/WX    TMP DP  RH WIND       PRES   REMARKS
JACKSON        FAIR      31  18  58 N7        30.12S WCI  24
CODY           FAIR      39  20  46 CALM      30.17
GREYBULL       FAIR      45  29  53 SE3       30.14F
WORLAND        FAIR      44  28  53 E9        30.14S
SHERIDAN       FAIR      34  26  72 CALM      30.22R
BUFFALO        FAIR      37  21  52 W6        30.24R WCI  32
GILLETTE       FAIR      32  24  72 S5        30.24R WCI  27
HULETT         FAIR      36  27  69 E9        30.27R WCI  29
NEWCASTLE      FAIR      41  19  42 NE8       30.27S

$$
WYZ014>020-022>026-101>103-190500-
CENTRAL WYOMING

CITY           SKY/WX    TMP DP  RH WIND       PRES   REMARKS
BIG PINEY      FAIR      33  -2  22 E6        30.12S WCI  28
PINEDALE       FAIR      32  16  51 W8        30.14S WCI  25
DUBOIS         FAIR      32  12  43 S6        30.14S WCI  26
LANDER         FAIR      43  19  38 SW13      30.12R
RIVERTON       FAIR      40  22  48 NE9       30.12S WCI  34
CASPER         FAIR      38  20  48 E13       30.20S WCI  30
DOUGLAS        FAIR      36  24  62 E9        30.25R WCI  29

$$
WYZ021-027>030-104>119-190500-
SOUTHERN WYOMING

CITY           SKY/WX    TMP DP  RH WIND       PRES   REMARKS
EVANSTON       FAIR      40  11  30 SE8       30.07S WCI  34
KEMMERER       FAIR      37   1  22 E8        30.10S WCI  31
FORT BRIDGER   FAIR      39  -2  17 E8        30.10S WCI  34
ROCK SPRINGS   FAIR      39   9  29 SE13      30.12S WCI  31
DIXON          FAIR      36  18  47 E7        30.17S WCI  31
RAWLINS        FAIR      37   8  30 E9        30.18S WCI  30
SARATOGA       FAIR      34   9  35 S8        30.18S WCI  27
LARAMIE        FAIR      34  16  47 E16       30.22S WCI  24
CHEYENNE       FAIR      36  17  46 E6        30.27R WCI  31
TORRINGTON     FAIR      35  23  61 NE8       30.25R WCI  29
PINE BLUFFS    FAIR      28  19  69 MISG      30.28R

$$




USA.gov is the U.S. government's official web portal to all federal, state and local government web resources and services.